Flag for U.S.A. Weather past 2 weeks in Decatur, Illinois, U.S.A.

57 °F

Light rain. Fog.

Feels Like: 54 °F
Forecast: 40 / 60 °F
Wind: 12 mph from Southwest

Location: Decatur Airport

Current Time: Nov 27, 2015 at 8:43:55 AM

Latest Report: Nov 27, 2015 at 7:54 AM

Visibility: 4 mi

Pressure: 30.23 "Hg

Humidity: 100%

Dew point: 57 °F

Location of DecaturLocation

Historic Weather in Decatur — Graph


Decatur temperature yesterday

Maximum temperature yesterday: 66 °F (at 1:54 PM)
Minimum temperature yesterday: 54 °F (at 12:54 AM)
Average temperature yesterday: 60 °F

Past Weeks' High & Low Weather Summary

High67 °F (Nov 15, 12:54 PM)100% (Nov 21, 10:54 AM)30.37 "Hg (Nov 21, 10:54 AM)
Low18 °F (Nov 22, 4:54 AM)25% (Nov 19, 3:54 PM)29.45 "Hg (Nov 18, 3:54 AM)
Average47 °F66%30.12 "Hg
* Reported Nov 12 6:54 AM — Nov 27 6:54 AM, Decatur, Weather by CustomWeather, © 2015

Note: Actual official high and low records may vary slightly from our data, if they occured in-between our weather recording intervals... More about our weather records


Decatur weather history for previous 24 hours

Time TempWeatherWind HumidityBarometerVisibility
6:54 AM
Fri, Nov 27
57 °FRain. Fog.9 mph96%30.22 "Hg3 mi
5:54 AM57 °FRain. Fog.9 mph96%30.23 "Hg2 mi
5:00 AM57 °FHeavy rain. Fog.8 mph96%30.23 "Hg2 mi
3:54 AM58 °FLight rain. Fog.18 mph90%30.19 "Hg6 mi
2:54 AM59 °FRain. Fog.17 mph87%30.19 "Hg5 mi
1:54 AM61 °FMostly cloudy.16 mph72%30.18 "Hg10 mi
12:54 AM61 °FMostly cloudy.17 mph72%30.17 "Hg10 mi
11:54 PM
Thu, Nov 26
60 °FOvercast.17 mph78%30.18 "Hg10 mi
10:54 PM60 °FLight rain. Mostly cloudy.15 mph75%30.20 "Hg6 mi
9:54 PM62 °FMostly cloudy.16 mph67%30.21 "Hg10 mi
8:54 PM61 °FMostly cloudy.17 mph70%30.22 "Hg10 mi
7:54 PM61 °FOvercast.17 mph70%30.23 "Hg10 mi
6:54 PM61 °FPassing clouds.18 mph70%30.23 "Hg10 mi
5:54 PM61 °FPassing clouds.16 mph75%30.23 "Hg10 mi
4:54 PM61 °FClear.22 mph75%30.21 "Hg10 mi
3:54 PM64 °FSunny.24 mph70%30.20 "Hg10 mi
2:54 PM65 °FSunny.22 mph68%30.20 "Hg10 mi
1:54 PM66 °FSunny.18 mph68%30.21 "Hg10 mi
12:54 PM65 °FSunny.17 mph68%30.24 "Hg10 mi
11:54 AM65 °FPassing clouds.24 mph66%30.26 "Hg10 mi
10:54 AM63 °FScattered clouds.21 mph70%30.29 "Hg10 mi
9:54 AM60 °FOvercast.26 mph72%30.32 "Hg10 mi
8:54 AM57 °FMostly cloudy.18 mph78%30.32 "Hg10 mi
Weather by CustomWeather, © 2015

See weather overviewHow to use our weather pages